Location: Bli��� Lhota
(48.7570°N, 14.0120°E)
Time: 02:22:20
(UTC+00:00)

Cosmos 1269 Rocket - Pass Details

Date: 18 September 2020
Orbit: 772 x 780 km, 74.1° (Epoch: 24 October)

Event Time Altitude Azimuth Distance (km) Brightness Sun altitude
Rises 19:33:20 0° 338° (NNW) 3,274 8.1 -23.2°
Reaches altitude 10° 19:35:45 10° 340° (NNW) 2,343 7.2 -23.6°
Maximum altitude 19:41:04 70° 65° (ENE) 830 4.0 -24.3°
Enters shadow 19:41:30 67° 100° (E) 849 3.9 -24.4°
